Content
SEND FEEDBACK

Daily
Averages
Monthly
Summary
Switzerland

STEG, SWITZERLAND


Home > Europe > Switzerland
Elevation: 2070 feet     Latitude: 46 18N     Longitude: 007 42E

WEATHER
 
SELECT A DAY
Number of Records: 141,292;   Date Range: 3/24/97 - 9/18/14
 
SHARE

PRINT THIS DATA

[ ← Previous Day ]
WEATHER ALMANAC - JANUARY 31, 2013
[ Next Day → ]
[ °C ]   °F
Weather ElementAverageHighLow
Temperature41.9 °F49 °F (3:00 pm)33 °F (7:00 am)
Dewpoint34.2 °F42 °F (1:00 am)31 °F (7:00 am)
Humidity72.2 %93 % (7:20 am)47 % (3:00 pm)
Barometer30.30 in30.41 in (9:00 am)30.24 in (1:20 pm)
Wind Speed2.9 mph6.9 mph (11:20 am)
Weather ElementAverage
Visibility7.9 mi
Wind DirectionESE (114.1 °)

Weather ElementTotal
Precipitation---
Heating Degree Days24 (Base 65)
Averaged from 41 records on January 31, 2013
WEATHER CONDITIONS BREAKOUT
WIND DIRECTION BREAKOUT
WEATHER BY HOUR - JANUARY 31, 2013
[ °C ]   °F
Local TimeTemperatureDewpointHumidityBarometerVisibilityWind DirectionWind SpeedGust SpeedPrecipitationEventsConditions
1:00 AM48.0 °F42.0 °F73 %30.28 in9.0 miNorth (10°)4.6 mphPartly Cloudy
2:00 AM45.0 °F40.0 °F78 %30.31 inNorth1.2 mph
3:00 AM42.0 °F38.0 °F82 %30.35 inESE (120°)2.3 mph
5:00 AM36.0 °F34.0 °F88 %30.38 inSE (130°)2.3 mph
6:00 AM36.0 °F33.0 °F87 %30.36 inNNE (20°)1.2 mph
7:00 AM33.0 °F31.0 °F90 %30.38 inCalm
7:20 AM33.8 °F32.0 °F93 %30.30 inVariable1.2 mphClear
7:50 AM35.6 °F33.8 °F93 %30.30 inEast (100°)3.5 mphClear
8:00 AM34.0 °F31.0 °F86 %30.39 inCalm
8:20 AM33.8 °F32.0 °F93 %30.33 inNE (50°)3.5 mphClear
8:50 AM33.8 °F32.0 °F93 %30.33 inEast (80°)4.6 mphClear
9:00 AM34.0 °F32.0 °F87 %30.41 inWNW (300°)1.2 mph
9:20 AM35.6 °F32.0 °F87 %30.33 inCalmClear
9:50 AM35.6 °F32.0 °F87 %30.33 inEast (80°)3.5 mphClear
10:20 AM37.4 °F33.8 °F87 %30.33 inEast (90°)5.8 mphClear
10:50 AM39.2 °F33.8 °F81 %30.33 inEast (80°)5.8 mphClear
11:00 AM42.0 °F35.0 °F68 %30.37 inESE (110°)3.5 mph
11:20 AM41.0 °F33.8 °F76 %30.33 inEast (80°)6.9 mphClear
11:50 AM42.8 °F35.6 °F76 %30.30 inESE (110°)3.5 mphClear
12:00 PM44.0 °F35.0 °F61 %30.34 inSSE (150°)1.2 mph
12:20 PM44.6 °F33.8 °F66 %30.30 inVariable2.3 mphClear
12:50 PM44.6 °F35.6 °F71 %30.27 inWest (260°)3.5 mphClear
1:00 PM46.0 °F35.0 °F56 %30.29 inSSW (210°)2.3 mph
1:20 PM44.6 °F33.8 °F66 %30.24 inVariable3.5 mphClear
1:50 PM46.4 °F33.8 °F62 %30.24 inWSW (240°)4.6 mphClear
2:00 PM48.0 °F35.0 °F48 %30.28 inWest (260°)5.8 mph
2:20 PM46.4 °F33.8 °F62 %30.27 inWSW (250°)6.9 mphClear
2:50 PM48.2 °F33.8 °F58 %30.27 inSW (230°)3.5 mphClear
3:00 PM49.0 °F35.0 °F47 %30.30 inSSE (150°)1.2 mph
3:20 PM48.2 °F33.8 °F58 %30.27 inSW (230°)6.9 mphClear
3:50 PM48.2 °F33.8 °F58 %30.24 in6.2 miVariable4.6 mphMostly Cloudy
4:20 PM48.2 °F33.8 °F58 %30.24 in6.2 miVariable3.5 mphMostly Cloudy
4:50 PM48.2 °F33.8 °F58 %30.24 in6.2 miCalmMostly Cloudy
5:00 PM46.0 °F35.0 °F56 %30.27 inESE (120°)1.2 mph
5:20 PM46.4 °F33.8 °F62 %30.24 inVariable2.3 mphClear
5:50 PM44.6 °F33.8 °F66 %30.24 inVariable1.2 mphClear
6:00 PM42.0 °F34.0 °F64 %30.28 inWSW (240°)3.5 mph
7:00 PM42.0 °F34.0 °F66 %30.29 in12.0 miSSW (210°)2.3 mphOvercast
8:00 PM42.0 °F35.0 °F67 %30.28 inENE (70°)3.5 mph
9:00 PM41.0 °F35.0 °F71 %30.27 inSW (220°)1.2 mph
11:00 PM40.0 °F35.0 °F76 %30.26 inWSW (250°)1.2 mph
Hourly data recorded from LSGS, located miles away from Steg, Switzerland







STORIES FROM OUR PARTNERS